{"data":{"norad_id":53669,"epoch":"2026-05-25T04:00:03.998880Z","epoch_age_seconds":60047,"freshness":"FRESH","line1":"1 53669U 22105X   26145.16671295  .00086130  00000+0  22982-2 0  9996","line2":"2 53669  97.6045  27.0460 0001837  73.2609  62.8671 15.37798963  5875","mean_motion":15.37798963,"eccentricity":0.0001837,"inclination_deg":97.6045,"raan_deg":27.046,"arg_perigee_deg":73.2609,"mean_anomaly_deg":62.8671,"bstar":0.0022982,"rev_number":587,"period_min":93.640328459501,"perigee_km":451.36460814706,"apogee_km":453.87422805508,"semimajor_km":6830.7564181011,"source":"CELESTRAK","updated_at":"2026-05-25T13:38:17.488453Z"}}